SR1WXZ Weather Reports


time (UTC)temp
C
wind
direction
speed
KPH
gust
KPH
rain 1hr
cm
rain 24hr
cm
rain mn
cm
humidity
%
barometer
mb
20260507060839 7 10 9.7 0.0 0.00 0.00 0.00 81 1012.0
20260507060044 7 10 9.7 0.0 0.00 0.00 0.00 81 1012.0
20260507054842 7 10 9.7 0.0 0.00 0.00 0.00 81 1012.0
20260507054545 7 10 9.7 0.0 0.00 0.00 0.00 81 1012.0
20260507053043 7 10 11.3 0.0 0.00 0.00 0.00 81 1012.0
20260507052841 7 10 11.3 0.0 0.00 0.00 0.00 81 1012.0
20260507051545 7 10 11.3 0.0 0.00 0.00 0.00 81 1012.0
20260507050839 7 10 11.3 0.0 0.00 0.00 0.00 86 1012.0
20260507050044 7 10 11.3 0.0 0.00 0.00 0.00 86 1012.0
20260507044842 7 10 11.3 0.0 0.00 0.00 0.00 86 1012.0
20260507044544 7 10 11.3 0.0 0.00 0.00 0.00 86 1012.0
20260507043043 7 20 9.7 0.0 0.00 0.00 0.00 87 1011.0
20260507042841 7 20 9.7 0.0 0.00 0.00 0.00 87 1011.0
20260507041546 7 20 9.7 0.0 0.00 0.00 0.00 87 1011.0
20260507040839 7 30 11.3 0.0 0.00 0.00 0.00 87 1011.0
20260507040045 7 30 11.3 0.0 0.00 0.00 0.00 87 1011.0
20260507034842 7 30 11.3 0.0 0.00 0.00 0.00 87 1011.0
20260507034544 7 30 11.3 0.0 0.00 0.00 0.00 87 1011.0
20260507033044 7 20 11.3 0.0 0.00 0.00 0.00 87 1011.0
20260507032841 7 20 11.3 0.0 0.00 0.00 0.00 87 1011.0
20260507031547 7 20 11.3 0.0 0.00 0.00 0.00 87 1011.0
20260507030839 7 30 11.3 0.0 0.00 0.00 0.00 81 1011.0
20260507030043 7 30 11.3 0.0 0.00 0.00 0.00 81 1011.0
20260507024842 7 30 11.3 0.0 0.00 0.00 0.00 81 1011.0
20260507024544 7 30 11.3 0.0 0.00 0.00 0.00 81 1011.0
20260507023043 7 30 11.3 0.0 0.00 0.00 0.00 87 1011.0
20260507022840 7 30 11.3 0.0 0.00 0.00 0.00 87 1011.0
20260507021546 7 30 11.3 0.0 0.00 0.00 0.00 87 1011.0
20260507020839 7 40 9.7 0.0 0.00 0.00 0.00 87 1011.0
20260507020044 7 40 9.7 0.0 0.00 0.00 0.00 87 1011.0
20260507014842 7 40 9.7 0.0 0.00 0.00 0.00 87 1011.0
20260507014545 7 40 9.7 0.0 0.00 0.00 0.00 87 1011.0
20260507013043 7 30 11.3 0.0 0.00 0.00 0.00 87 1010.0
20260507012840 7 30 11.3 0.0 0.00 0.00 0.00 87 1010.0
20260507011545 7 30 11.3 0.0 0.00 0.00 0.00 87 1010.0
20260507010839 7 30 11.3 0.0 0.00 0.00 0.00 87 1010.0
20260507010044 7 30 11.3 0.0 0.00 0.00 0.00 87 1010.0
20260507004841 7 30 11.3 0.0 0.00 0.00 0.00 87 1010.0
20260507004544 7 30 11.3 0.0 0.00 0.00 0.00 87 1010.0
20260507003043 7 10 9.7 0.0 0.00 0.00 0.00 93 1010.0
20260507002839 7 10 9.7 0.0 0.00 0.00 0.00 93 1010.0
20260507001546 7 10 9.7 0.0 0.00 0.00 0.00 93 1010.0
20260507000838 7 40 8.0 0.0 0.00 0.00 0.00 87 1010.0
20260507000043 7 40 8.0 0.0 0.00 0.00 0.00 87 1010.0
20260506234842 7 40 8.0 0.0 0.00 0.00 0.00 87 1010.0
20260506234550 7 40 8.0 0.0 0.00 0.00 0.00 87 1010.0
20260506233043 7 20 11.3 0.0 0.00 0.00 0.00 87 1010.0
20260506232840 7 20 11.3 0.0 0.00 0.00 0.00 87 1010.0
20260506231546 7 20 11.3 0.0 0.00 0.00 0.00 87 1010.0
20260506230839 7 20 9.7 0.0 0.00 0.00 0.00 87 1010.0
20260506230043 7 20 9.7 0.0 0.00 0.00 0.00 87 1010.0
20260506224843 7 20 9.7 0.0 0.00 0.00 0.00 87 1010.0
20260506224544 7 20 9.7 0.0 0.00 0.00 0.00 87 1010.0
20260506223042 7 20 11.3 0.0 0.00 0.00 0.00 87 1010.0
20260506222841 7 20 11.3 0.0 0.00 0.00 0.00 87 1010.0
20260506221556 7 20 11.3 0.0 0.00 0.00 0.00 87 1010.0
20260506220840 7 20 12.9 0.0 0.00 0.00 0.00 87 1010.0
20260506220043 7 20 12.9 0.0 0.00 0.00 0.00 87 1010.0
20260506214848 7 20 12.9 0.0 0.00 0.00 0.00 87 1010.0
20260506214544 7 20 12.9 0.0 0.00 0.00 0.00 87 1010.0
20260506213042 7 360 11.3 0.0 0.00 0.00 0.00 87 1010.0
20260506212846 7 360 11.3 0.0 0.00 0.00 0.00 87 1010.0
20260506211545 7 360 11.3 0.0 0.00 0.00 0.00 87 1010.0
20260506210845 7 20 9.7 0.0 0.00 0.00 0.00 87 1009.0
20260506210044 7 20 9.7 0.0 0.00 0.00 0.00 87 1009.0
20260506204840 7 20 9.7 0.0 0.00 0.00 0.00 87 1009.0
20260506204544 7 20 9.7 0.0 0.00 0.00 0.00 87 1009.0
20260506203043 7 360 11.3 0.0 0.00 0.00 0.00 93 1009.0
20260506202839 7 360 11.3 0.0 0.00 0.00 0.00 93 1009.0
20260506201545 7 360 11.3 0.0 0.00 0.00 0.00 93 1009.0
20260506200837 7 360 11.3 0.0 0.00 0.00 0.00 87 1009.0
20260506200043 7 360 11.3 0.0 0.00 0.00 0.00 87 1009.0
20260506194840 7 360 11.3 0.0 0.00 0.00 0.00 87 1009.0
20260506194544 7 360 11.3 0.0 0.00 0.00 0.00 87 1009.0
20260506193042 7 360 11.3 0.0 0.00 0.00 0.00 87 1009.0
20260506192838 7 360 11.3 0.0 0.00 0.00 0.00 87 1009.0
20260506191545 7 360 11.3 0.0 0.00 0.00 0.00 87 1009.0
20260506190837 7 10 11.3 0.0 0.00 0.00 0.00 87 1008.0
20260506190044 7 10 11.3 0.0 0.00 0.00 0.00 87 1008.0
20260506184841 7 10 11.3 0.0 0.00 0.00 0.00 87 1008.0
20260506184544 7 10 11.3 0.0 0.00 0.00 0.00 87 1008.0
20260506183042 7 10 11.3 0.0 0.00 0.00 0.00 93 1008.0
20260506182839 7 10 11.3 0.0 0.00 0.00 0.00 93 1008.0
20260506181546 7 10 11.3 0.0 0.00 0.00 0.00 93 1008.0
20260506180837 7 10 11.3 0.0 0.00 0.00 0.00 93 1008.0
20260506180044 7 10 11.3 0.0 0.00 0.00 0.00 93 1008.0
20260506174841 7 10 11.3 0.0 0.00 0.00 0.00 93 1008.0
20260506174544 7 10 11.3 0.0 0.00 0.00 0.00 93 1008.0
20260506173042 8 20 12.9 0.0 0.00 0.00 0.00 87 1008.0
20260506172839 8 20 12.9 0.0 0.00 0.00 0.00 87 1008.0
20260506171546 8 20 12.9 0.0 0.00 0.00 0.00 87 1008.0
20260506170837 10 360 9.7 0.0 0.00 0.00 0.00 93 1007.0
20260506170042 10 360 9.7 0.0 0.00 0.00 0.00 93 1007.0
20260506164841 10 360 9.7 0.0 0.00 0.00 0.00 93 1007.0
20260506164544 10 360 9.7 0.0 0.00 0.00 0.00 93 1007.0
20260506163042 10 20 12.9 0.0 0.00 0.00 0.00 93 1007.0
20260506162839 10 20 12.9 0.0 0.00 0.00 0.00 93 1007.0
20260506161545 10 20 12.9 0.0 0.00 0.00 0.00 93 1007.0
20260506160838 10 360 11.3 0.0 0.00 0.00 0.00 93 1007.0
20260506160044 10 360 11.3 0.0 0.00 0.00 0.00 93 1007.0
20260506154841 10 360 11.3 0.0 0.00 0.00 0.00 93 1007.0
20260506154543 10 360 11.3 0.0 0.00 0.00 0.00 93 1007.0
20260506153042 10 350 11.3 0.0 0.00 0.00 0.00 93 1007.0
20260506152840 10 350 11.3 0.0 0.00 0.00 0.00 93 1007.0
20260506151545 10 350 11.3 0.0 0.00 0.00 0.00 93 1007.0
20260506150838 10 360 11.3 0.0 0.00 0.00 0.00 93 1007.0
20260506150042 10 360 11.3 0.0 0.00 0.00 0.00 93 1007.0
20260506144847 10 360 11.3 0.0 0.00 0.00 0.00 93 1007.0
20260506144543 10 360 11.3 0.0 0.00 0.00 0.00 93 1007.0
20260506143042 10 360 11.3 0.0 0.00 0.00 0.00 100 1007.0
20260506142846 10 360 11.3 0.0 0.00 0.00 0.00 100 1007.0
20260506141545 10 360 11.3 0.0 0.00 0.00 0.00 100 1007.0
20260506140844 10 360 9.7 0.0 0.00 0.00 0.00 93 1007.0
20260506140042 10 360 9.7 0.0 0.00 0.00 0.00 93 1007.0
20260506134840 10 360 9.7 0.0 0.00 0.00 0.00 93 1007.0
20260506134544 10 360 9.7 0.0 0.00 0.00 0.00 93 1007.0
20260506133042 10 10 9.7 0.0 0.00 0.00 0.00 93 1007.0
20260506132839 10 10 9.7 0.0 0.00 0.00 0.00 93 1007.0
20260506131545 10 10 9.7 0.0 0.00 0.00 0.00 93 1007.0
20260506130837 10 360 11.3 0.0 0.00 0.00 0.00 93 1007.0
20260506130043 10 360 11.3 0.0 0.00 0.00 0.00 93 1007.0
20260506124840 10 360 11.3 0.0 0.00 0.00 0.00 93 1007.0
20260506124544 10 360 11.3 0.0 0.00 0.00 0.00 93 1007.0
20260506123042 8 10 12.9 0.0 0.00 0.00 0.00 100 1006.0
20260506122839 8 10 12.9 0.0 0.00 0.00 0.00 100 1006.0
20260506121545 8 10 12.9 0.0 0.00 0.00 0.00 100 1006.0
20260506120837 8 10 11.3 0.0 0.00 0.00 0.00 100 1007.0
20260506120042 8 10 11.3 0.0 0.00 0.00 0.00 100 1007.0
20260506114841 8 10 11.3 0.0 0.00 0.00 0.00 100 1007.0
20260506114544 8 10 11.3 0.0 0.00 0.00 0.00 100 1007.0
20260506113043 8 10 12.9 0.0 0.00 0.00 0.00 100 1006.0
20260506112840 8 10 12.9 0.0 0.00 0.00 0.00 100 1006.0
20260506111544 8 10 12.9 0.0 0.00 0.00 0.00 100 1006.0
20260506110838 10 360 14.5 0.0 0.00 0.00 0.00 93 1006.0
20260506110042 10 360 14.5 0.0 0.00 0.00 0.00 93 1006.0
20260506104840 10 360 14.5 0.0 0.00 0.00 0.00 93 1006.0
20260506104543 10 360 14.5 0.0 0.00 0.00 0.00 93 1006.0
20260506103042 10 10 9.7 0.0 0.00 0.00 0.00 93 1006.0
20260506102838 10 10 9.7 0.0 0.00 0.00 0.00 93 1006.0
20260506101545 10 10 9.7 0.0 0.00 0.00 0.00 93 1006.0
20260506100837 10 20 11.3 0.0 0.00 0.00 0.00 93 1006.0
20260506100043 10 20 11.3 0.0 0.00 0.00 0.00 93 1006.0
20260506094841 10 20 11.3 0.0 0.00 0.00 0.00 93 1006.0
20260506094545 10 20 11.3 0.0 0.00 0.00 0.00 93 1006.0
20260506093042 10 10 14.5 0.0 0.00 0.00 0.00 93 1006.0
20260506092840 10 10 14.5 0.0 0.00 0.00 0.00 93 1006.0
20260506091544 10 10 14.5 0.0 0.00 0.00 0.00 93 1006.0
20260506090838 10 20 12.9 0.0 0.00 0.00 0.00 100 1006.0
20260506090044 10 20 12.9 0.0 0.00 0.00 0.00 100 1006.0
20260506084841 10 20 12.9 0.0 0.00 0.00 0.00 100 1006.0
20260506084544 10 20 12.9 0.0 0.00 0.00 0.00 100 1006.0
20260506083042 10 20 12.9 0.0 0.00 0.00 0.00 100 1006.0
20260506082840 10 20 12.9 0.0 0.00 0.00 0.00 100 1006.0
20260506081544 10 20 12.9 0.0 0.00 0.00 0.00 100 1006.0
20260506080838 10 20 12.9 0.0 0.00 0.00 0.00 100 1006.0
20260506073042 10 20 12.9 0.0 0.00 0.00 0.00 100 1006.0
20260506072840 10 20 12.9 0.0 0.00 0.00 0.00 100 1006.0
20260506071544 10 20 12.9 0.0 0.00 0.00 0.00 100 1006.0
20260506070838 10 20 11.3 0.0 0.00 0.00 0.00 100 1006.0
20260506061544 10 20 11.3 0.0 0.00 0.00 0.00 100 1006.0